Change the Weather History Date:

Saturday, February 9, 2013

  Actual Average Record
Temperature  
Mean Temperature 42 °F -  
Max Temperature 44 °F 41 °F 59 °F (1963)
Min Temperature 41 °F 31 °F 12 °F (2014)
Degree Days  
Heating Degree Days 22    
Moisture  
Dew Point 42 °F    
Average Humidity 100    
Maximum Humidity 100    
Minimum Humidity 100    
Precipitation  
Precipitation 0.33 in - - ()
Sea Level Pressure  
Sea Level Pressure 30.24 in    
Wind  
Wind Speed 6 mph (SE)    
Max Wind Speed 17 mph    
Max Gust Speed 22 mph    
Visibility 6 miles    
Events Rain    
Averages and records for this station are not official NWS values.
T = Trace of Precipitation, MM = Missing Value Source: NWS Daily Summary

Daily Weather History Graph

Daily Weather History Graph

Search for Another Location

Airport or City:

Trip Planner

Search our weather history database for the weather conditions in past years. The results will help you decide how hot, cold, wet, or windy it might be!

Date:

Astronomy

Feb. 09, 2013 Rise Set
Actual Time 7:22 AM AKST 4:40 PM AKST
Civil Twilight 6:43 AM AKST 5:19 PM AKST
Nautical Twilight 6:00 AM AKST 6:02 PM AKST
Astronomical Twilight 5:17 AM AKST 6:45 PM AKST
Moon 6:35 AM AKST (2/9) 4:38 PM AKST (2/9)
Length of Visible Light 10h 36m
Length of Day
9h 18m
Waning Crescent, 0% of the Moon is Illuminated
Feb 9
Waning Crescent
Feb 9
New
Feb 17
First Quarter
Feb 25
Full
Mar 4
Last Quarter

Hourly Weather History & Observations

Time (AKST) Temp. Windchill Dew Point Humidity Pressure Visibility Wind Dir Wind Speed Gust Speed Precip Events Conditions
12:24 AM 41.0 °F - 41.0 °F 100% 30.18 in 1.8 mi Calm Calm - N/A   Overcast
12:43 AM 41.0 °F - 41.0 °F 100% 30.19 in 3.0 mi Calm Calm - N/A   Overcast
12:53 AM 41.0 °F 39.0 °F 41.0 °F 100% 30.20 in 10.0 mi South 3.5 mph - N/A   Overcast
1:01 AM 41.0 °F - 41.0 °F 100% 30.19 in 10.0 mi Calm Calm - N/A   Overcast
1:53 AM 42.1 °F - 42.1 °F 100% 30.20 in 10.0 mi Calm Calm - N/A   Overcast
3:53 AM 41.0 °F 39.0 °F 41.0 °F 100% 30.22 in 10.0 mi South 3.5 mph - N/A   Overcast
4:25 AM 41.0 °F 37.1 °F 41.0 °F 100% 30.21 in 10.0 mi SE 5.8 mph - N/A   Overcast
4:34 AM 41.0 °F 36.4 °F 41.0 °F 100% 30.21 in 10.0 mi SE 6.9 mph - N/A   Overcast
4:49 AM 41.0 °F 39.0 °F 41.0 °F 100% 30.21 in 9.0 mi SE 3.5 mph - N/A   Overcast
4:53 AM 41.0 °F 38.0 °F 41.0 °F 100% 30.22 in 6.0 mi South 4.6 mph - N/A   Overcast
5:08 AM 41.0 °F 38.0 °F 41.0 °F 100% 30.22 in 10.0 mi South 4.6 mph - N/A   Overcast
5:28 AM 41.0 °F 39.0 °F 41.0 °F 100% 30.22 in 10.0 mi SSE 3.5 mph - N/A   Overcast
5:53 AM 41.0 °F 39.0 °F 41.0 °F 100% 30.24 in 5.0 mi South 3.5 mph - N/A   Overcast
6:08 AM 41.0 °F 38.0 °F 41.0 °F 100% 30.24 in 10.0 mi SSE 4.6 mph - N/A   Overcast
6:53 AM 41.0 °F 37.1 °F 41.0 °F 100% 30.24 in 6.0 mi SSE 5.8 mph - N/A   Overcast
7:18 AM 41.0 °F 38.0 °F 41.0 °F 100% 30.23 in 10.0 mi SSE 4.6 mph - N/A   Overcast
7:53 AM 41.0 °F 37.1 °F 41.0 °F 100% 30.25 in 8.0 mi SSE 5.8 mph - N/A   Overcast
8:53 AM 42.1 °F 37.1 °F 42.1 °F 100% 30.27 in 10.0 mi SE 8.1 mph - N/A   Overcast
9:53 AM 43.0 °F 37.7 °F 43.0 °F 100% 30.28 in 10.0 mi SE 9.2 mph - N/A   Overcast
10:53 AM 43.0 °F 37.7 °F 43.0 °F 100% 30.28 in 10.0 mi SSE 9.2 mph - 0.00 in Rain Light Rain
11:53 AM 43.0 °F 37.2 °F 43.0 °F 100% 30.29 in 10.0 mi SSE 10.4 mph - 0.01 in Rain Light Rain
12:53 PM 44.1 °F 38.6 °F 44.1 °F 100% 30.28 in 10.0 mi SSE 10.4 mph - 0.00 in Rain Light Rain
1:53 PM 43.0 °F 37.2 °F 43.0 °F 100% 30.28 in 6.0 mi SE 10.4 mph - 0.01 in Rain Light Rain
2:53 PM 43.0 °F 37.2 °F 43.0 °F 100% 30.28 in 3.0 mi SSE 10.4 mph - 0.03 in Rain Light Rain
3:53 PM 43.0 °F 37.2 °F 43.0 °F 100% 30.28 in 10.0 mi SSE 10.4 mph - 0.01 in   Overcast
4:53 PM 43.0 °F 37.2 °F 43.0 °F 100% 30.27 in 3.0 mi SSE 10.4 mph - 0.01 in Rain Light Rain
5:53 PM 43.0 °F 37.2 °F 43.0 °F 100% 30.27 in 3.0 mi SE 10.4 mph - 0.01 in Rain Light Rain
6:53 PM 43.0 °F 37.7 °F 43.0 °F 100% 30.27 in 3.0 mi SE 9.2 mph - 0.01 in Rain Light Rain
7:53 PM 43.0 °F 38.2 °F 43.0 °F 100% 30.26 in 3.0 mi SSE 8.1 mph - 0.02 in Rain Light Rain
8:53 PM 43.0 °F 35.7 °F 43.0 °F 100% 30.25 in 3.0 mi SE 15.0 mph - 0.05 in Rain Light Rain
9:18 PM 42.8 °F 34.8 °F 42.8 °F 100% 30.24 in 2.0 mi SE 17.3 mph 21.9 mph 0.02 in Rain Light Rain
9:32 PM 42.8 °F 36.2 °F 42.8 °F 100% 30.25 in 1.5 mi SE 12.7 mph - 0.04 in Rain Light Rain
9:53 PM 43.0 °F 35.7 °F 43.0 °F 100% 30.25 in 1.8 mi SE 15.0 mph - 0.07 in Rain Light Rain
10:11 PM 42.8 °F 35.4 °F 42.8 °F 100% 30.24 in 2.5 mi SE 15.0 mph - 0.02 in Rain Light Rain
10:41 PM 42.8 °F 35.4 °F 42.8 °F 100% 30.25 in 1.8 mi SE 15.0 mph - 0.06 in Rain Light Rain
10:51 PM 42.8 °F 35.4 °F 42.8 °F 100% 30.25 in 2.5 mi SE 15.0 mph - 0.07 in Rain Light Rain
10:53 PM 43.0 °F 35.7 °F 43.0 °F 100% 30.25 in 2.5 mi SE 15.0 mph - 0.07 in Rain Light Rain
11:01 PM 42.8 °F 35.4 °F 42.8 °F 100% 30.25 in 3.0 mi ESE 15.0 mph - 0.01 in Rain Light Rain
11:53 PM 43.0 °F 36.0 °F 43.0 °F 100% 30.25 in 2.5 mi SE 13.8 mph - 0.03 in Rain Light Rain